3788A6351 Weather Reports


time (UTC)temp
F
wind
direction
speed
knots
gust
knots
rain 1hr
in
rain 24hr
in
rain mn
in
humidity
%
barometer
mb
20260504050116 47 0 0.0 0.9 0.00 0.03 0.00 62 1004.3
20260504044550 49 204 0.0 1.7 0.00 0.03 0.03 59 1004.4
20260504043042 47 0 0.0 0.0 0.00 0.03 0.03 62 1004.6
20260504041543 47 0 0.0 0.0 0.00 0.03 0.03 59 1004.7
20260504040046 48 0 0.0 0.0 0.00 0.03 0.03 57 1005.0
20260504034541 47 0 0.0 0.0 0.00 0.03 0.03 58 1005.3
20260504033054 48 0 0.0 0.0 0.00 0.03 0.03 57 1005.5
20260504031557 50 0 0.0 0.0 0.00 0.03 0.03 54 1005.6
20260504030050 50 0 0.0 0.0 0.00 0.03 0.03 54 1005.6
20260504024542 50 0 0.0 0.0 0.00 0.03 0.03 54 1005.6
20260504023046 51 0 0.0 0.0 0.00 0.03 0.03 52 1005.5
20260504021542 53 0 0.0 0.0 0.00 0.03 0.03 53 1005.6
20260504020040 55 0 0.0 0.0 0.00 0.03 0.03 48 1005.6
20260504014555 57 0 0.0 0.0 0.00 0.03 0.03 46 1005.7
20260504013048 58 0 0.0 0.9 0.00 0.03 0.03 44 1005.6
20260504011548 61 0 0.0 0.0 0.00 0.03 0.03 38 1005.6
20260504010104 63 0 0.0 0.9 0.00 0.03 0.03 35 1005.5
20260504004544 65 63 0.0 0.9 0.00 0.03 0.03 33 1005.5
20260504003042 66 72 0.0 2.6 0.00 0.03 0.03 31 1005.5
20260504001548 67 134 0.0 3.5 0.00 0.03 0.03 30 1005.6
20260504000049 67 0 0.9 3.5 0.00 0.03 0.03 32 1005.5
20260503234543 68 113 0.0 5.2 0.00 0.03 0.03 31 1005.4
20260503233048 69 266 0.9 4.3 0.00 0.03 0.03 29 1005.4
20260503231549 69 10 0.9 5.2 0.00 0.03 0.03 29 1005.4
20260503230047 70 25 0.9 6.1 0.00 0.03 0.03 30 1005.6
20260503224546 70 255 0.9 4.3 0.00 0.03 0.03 29 1005.4
20260503223042 71 297 0.9 7.0 0.00 0.03 0.03 29 1005.3
20260503221549 72 57 1.7 8.7 0.00 0.03 0.03 27 1005.3
20260503220058 72 134 1.7 9.6 0.00 0.03 0.03 29 1005.3
20260503214544 72 302 2.6 11.3 0.00 0.03 0.03 28 1005.6
20260503213047 72 30 2.6 8.7 0.00 0.03 0.03 28 1005.6
20260503211541 72 299 3.5 11.3 0.00 0.03 0.03 27 1005.8
20260503210055 73 286 0.9 8.7 0.00 0.03 0.03 27 1005.7
20260503204558 72 343 1.7 8.7 0.00 0.03 0.03 29 1005.8
20260503203059 72 34 2.6 11.3 0.00 0.03 0.03 28 1005.9
20260503201549 72 313 3.5 10.4 0.00 0.03 0.03 28 1005.9
20260503200049 72 94 1.7 7.0 0.00 0.03 0.03 29 1005.8
20260503194603 72 359 4.3 11.3 0.00 0.03 0.03 28 1006.0
20260503193047 72 24 4.3 10.4 0.00 0.03 0.03 27 1006.2
20260503191544 71 1 3.5 13.0 0.00 0.03 0.03 28 1006.2
20260503190049 71 338 4.3 10.4 0.00 0.03 0.03 30 1006.1
20260503184544 71 62 4.3 12.2 0.00 0.03 0.03 34 1006.1
20260503183052 71 279 3.5 9.6 0.00 0.03 0.03 33 1006.1
20260503181545 70 54 3.5 9.6 0.00 0.03 0.03 33 1006.2
20260503174540 69 319 3.5 10.4 0.00 0.03 0.03 37 1006.4
20260503173131 69 32 3.5 13.0 0.00 0.03 0.03 37 1006.4
20260503171548 68 311 2.6 9.6 0.00 0.03 0.03 38 1006.5
20260503081555 53 170 1.7 3.5 0.00 0.00 0.00 48 1009.9
20260503071545 54 228 8.7 13.0 0.00 0.00 0.00 44 1010.9